Terug naar catalogus

FENGYUN 1C DEB

ActiefSSO
NORAD 30540·DEBRIS·🇨🇳 China

Gelanceerd May 10, 1999 vanaf Taiyuan Satellite Launch Center

Loading…

Volgende Passages (komende 24 uur)

TLE

VersSource: Space-Track

Epoch: Sep 13, 2026, 14:03 UTC

1 30540U 99025AKE 26256.58593924  .00002679  00000-0  94700-3 0  9990
2 30540  98.8891  17.1780 0049635 335.4493 152.4328 14.34824833 12243

Volg FENGYUN 1C DEB in realtime met AllMySat

Download on the App Store